Torna al catalogo

ARIANE 42L+3 R/B

AttivoGTO
NORAD 23671·ROCKET BODY·🇫🇷 France

Lanciato Sep 24, 1995 da Guiana Space Centre

Loading…

TLE

In scadenzaSource: Space-Track

Epoca: Sep 14, 2026, 10:35 UTC

1 23671U 95049B   26257.44119442  .00000381  00000-0  12638-2 0  9991
2 23671   7.6697  26.2851 7210966 324.6044   4.2222  2.29733198254449

Traccia ARIANE 42L+3 R/B in tempo reale con AllMySat

Download on the App Store